Preview of NWS' New Version of Forecast
This preview is not operational and should not be used for support decisions.
Latest weather observations around

Monroe Regional Airport (KMLU)

Using International System of Units (Switch to English Units)
Date/ Time (CDT) Wind (kph) Vis. (km) Weather Sky Cond. Temp (°C) Rel. Humidity Wind Chill (°C) Heat Index (°C) Pressure Precip. (cm)
Air Dwpt 6 hour Altimeter (hPa) Sea level (hPa) 1 hr 3 hr 6 hr
Max Min
Sep 23 14:53 5 16.09 Clear CLR 33 20     46%   36 1016.9 1016.6      
Sep 23 13:53 WSW 13 16.09 Mostly Cloudy BKN075 32 21     53%   35 1018 1017.6      
Sep 23 12:53 SW 18 16.09 Mostly Clear FEW070 32 21     52%   35 1018.6 1018.5      
Sep 23 12:17 W 13 16.09 Cloudy FEW029 OVC070 30 23     65%   34 1019.3        
Sep 23 11:53 W 11 16.09 Mostly Cloudy BKN028 31 23     63%   35 1019.7 1019.3      
Sep 23 11:00 W 18 16.09 Cloudy BKN018 OVC070 29 23     70%   32 1020        
Sep 23 10:53 SW 17 16.09 Cloudy SCT018 OVC070 28 23     72%   32 1020 1019.8      
Sep 23 10:51 WSW 13 16.09 Cloudy SCT018 OVC070 28 23     74%   31 1020        
Sep 23 10:44 SW 15 16.09 Cloudy BKN018 OVC070 28 23     74%   32 1020        
Sep 23 09:53 SSW 8 16.09 Mostly Cloudy FEW012 BKN070 27 22     76%   29 1020 1019.7      
Sep 23 09:14 S 8 16.09 Partly Cloudy SCT021 SCT070 25 22     82%   26 1019.7        
Sep 23 08:53 Calm 16.09 Cloudy OVC016 24 21     82%   25 1019.7 1019.4      
Sep 23 07:53 Calm 16.09 Cloudy OVC015 22 21     93%   23 1019 1018.8      
Sep 23 07:24 Calm 16.09 Mostly Cloudy BKN016 21 20     93%     1018.6        
Sep 23 06:53 Calm 16.09 Mostly Clear FEW017 21 19     93%     1018.6 1018.3      
Sep 23 05:53 S 5 16.09 Clear CLR 22 20     90%   22 1018 1017.7      
Sep 23 04:53 S 8 16.09 Clear CLR 23 20     84%   23 1017.3 1017.2      
Sep 23 03:53 S 8 16.09 Clear CLR 23 19     81%   23 1017.6 1017.4      
Sep 23 02:53 S 5 16.09 Clear CLR 23 20     82%   24 1017.6 1017.5      
Sep 23 01:53 Calm 16.09 Clear CLR 23 20     84%   23 1017.6 1017.5      
Sep 23 00:53 S 5 16.09 Clear CLR 25 19     71%   25 1017.6 1017.3      
Sep 22 23:53 S 11 16.09 Clear CLR 26 20     69%   27 1017.3 1017.2      
Sep 22 22:53 SSW 8 16.09 Clear CLR 26 20     71%   26 1018 1017.6      
Sep 22 21:53 SSE 8 16.09 Cloudy OVC075 28 19     60%   29 1017.6 1017.4      
Sep 22 20:53 S 5 16.09 Clear CLR 27 19     62%   29 1017.3 1017.2      
Sep 22 19:53 S 8 16.09 Clear   29 19     55%   31 1016.6 1016.3      
Sep 22 18:53 S 8 16.09 Cloudy OVC090 31 19     50%   33 1016.3 1016      
Sep 22 17:53 SW 15 16.09 Cloudy SCT065 OVC085 32 19     45%   34 1016.3 1016      
Sep 22 16:53 SW 15 16.09 Partly Cloudy FEW065 SCT080 34 19     40%   36 1015.9 1015.8      
Sep 22 15:53 SW 17 16.09 Cloudy FEW060 OVC080 33 19     43%   35 1016.3 1016      
Sep 22 14:53 SSW 13 16.09 Cloudy BKN060 OVC080 34 19     43%   36 1016.6 1016.5      
Sep 22 13:53 SW 18 16.09 Mostly Clear FEW085 34 20     44%   36 1017.6 1017.5      
Sep 22 12:53 SSE 11 16.09 Clear CLR 32 19     47%   34 1018.3 1018.2      
Sep 22 11:53 SSW 18 16.09 Clear CLR 31 20     52%   33 1019.3 1019.2      
Sep 22 10:53 S 13 16.09 Clear CLR 30 21     57%   32 1020 1019.8      
Sep 22 09:53 S 17 16.09 Clear CLR 28 20     61%   30 1020.3 1020.1      
Sep 22 08:53 S 11 16.09 Clear CLR 26 22     77%   28 1020.3 1020.2      
Sep 22 07:53 SE 8 16.09 Clear CLR 23 22     91%   24 1019.7 1019.6      
Sep 22 06:53 ESE 5 16.09 Clear CLR 22 21     93%   23 1019.7 1019.3      
Sep 22 05:53 S 5 16.09 Mostly Cloudy BKN055 23 21     90%   23 1019.3 1019.1      
Sep 22 04:53 Calm 16.09 Clear CLR 22 21     93%   23 1019.3 1019      
Sep 22 03:53 Calm 16.09 Cloudy OVC070 23 21     87%   24 1019.3 1019      
Sep 22 02:53 Calm 16.09 Mostly Cloudy BKN070 23 21     90%   23 1019.3 1019.2      
Sep 22 01:53 Calm 16.09 Mostly Clear FEW065 23 21     87%   24 1019.7 1019.3      
Sep 22 00:53 S 5 16.09 Clear CLR 24 21     82%   25 1019.3 1019      
Sep 21 23:53 S 5 16.09 Clear CLR 25 22     82%   26 1019.3 1019.2      
Sep 21 22:53 SSE 13 16.09 Clear CLR 26 21     76%   26 1019.3 1019.2      
Sep 21 21:53 S 11 16.09 Clear CLR 26 21     72%   27 1019.3 1019.1      
Sep 21 20:53 SE 9 16.09 Clear CLR 24 20     76%   25 1019 1018.7      
Sep 21 19:53 Calm 16.09 Clear CLR 26 21     74%   26 1018.3 1017.9      
Sep 21 18:53 Calm 16.09 Mostly Clear FEW070 30 19     51%   31 1018 1017.7      
Sep 21 17:53 Calm 16.09 Partly Cloudy FEW070 SCT085 32 19     45%   34 1017.6 1017.5      
Sep 21 16:53 S 13 16.09 Partly Cloudy SCT080 33 17     39%   33 1018 1017.7      
Sep 21 15:53 11 16.09 Mostly Cloudy BKN065 BKN080 34 19     41%   36 1018.3 1018      
Sep 21 14:53 S 13 16.09 Mostly Clear FEW065 33 18     41%   34 1019 1018.8      
Sep 21 13:53 S 8 16.09 Mostly Cloudy BKN055 32 20     49%   34 1020.3 1020      
Sep 21 12:53 SSE 11 16.09 Mostly Clear FEW055 FEW070 32 19     45%   34 1021 1020.9      
Sep 21 11:53 S 18 16.09 Partly Cloudy FEW041 SCT050 31 21     55%   33 1021.7 1021.5      
Sep 21 10:53 SSE 17 16.09 Mostly Clear FEW030 29 21     61%   32 1022.4 1022.2      
Sep 21 09:53 9 16.09 Clear CLR 27 22     72%   29 1022.7 1022.4      
Sep 21 08:53 8 16.09 Clear CLR 24 21     82%   25 1022.4 1022.2      
Sep 21 07:53 Calm 16.09 Clear CLR 22 21     91%   23 1021.7 1021.6      
Sep 21 06:53 Calm 16.09 Clear CLR 21 20     93%     1021 1020.9      
Sep 21 05:53 Calm 14.48 Clear CLR 21 21     97%     1021 1020.6      
Sep 21 04:58 Calm 4.83 Fog/Mist FEW004 21 21     97%     1020.7        
Sep 21 04:53 Calm 2.41 Fog/Mist FEW004 21 21     97%     1020.7 1020.3      
Sep 21 04:26 Calm 1.21 Fog/Mist VV004 21 21     100%     1020.3        
Sep 21 04:15 Calm 0.8 Fog VV005 22 21     96%   22 1020.3        
Sep 21 04:08 Calm 1.21 Fog/Mist CLR 22 21     96%   22 1020.3        
Sep 21 04:01 Calm 0.8 Fog VV005 22 21     96%   22 1020.3        
Sep 21 03:53 Calm 1.61 Fog/Mist VV006 22 21     93%   23 1020.3 1020.2      
Sep 21 03:50 Calm 2.82 Fog/Mist CLR 22 21     94%   23 1020.3        
Sep 21 02:53 Calm 12.87 Clear CLR 23 22     94%   24 1020.3 1020      
Sep 21 01:53 ESE 5 16.09 Clear CLR 24 23     94%   25 1020.3 1020.1      
Sep 21 00:53 E 5 12.87 Mostly Clear FEW045 24 23     94%   25 1020.3 1020.2     0
Sep 20 23:53 Calm 11.27 Mostly Cloudy BKN045 24 23     94%   25 1020.3 1020.1      
Sep 20 22:53 E 5 12.87 Mostly Cloudy BKN055 24 23     94%   25 1020 1019.8      
Sep 20 21:53 E 8 14.48 Mostly Cloudy SCT055 BKN090 24 23     94%   25 1020.3 1020 0 0  
Sep 20 20:53 Calm 14.48 Light Rain BKN075 BKN090 24 23     94%   25 1019.7 1019.4 0    
Sep 20 19:53 N 8 14.48 Mostly Cloudy FEW050 BKN085 25 24     94%   26 1019.3 1019.2      
Sep 20 18:53 WNW 5 16.09 Clear   26 23     87%   26 1018.6 1018.5 0   0
Sep 20 17:53 WSW 15 9.66 Light Rain and Fog/Mist FEW055 SCT080 BKN110 26 24     88%   28 1018.3 1018.2 0    
Sep 20 16:53 Calm 16.09 Clear   27 23     82%   29 1018 1017.6 0    
Sep 20 16:04 W 15 16.09 Cloudy SCT050 BKN070 OVC110 24 23     91%   25 1018   0    
Sep 20 15:53 W 21 4.02 Heavy Rain and Fog/Mist SCT048 SCT055 BKN070 25 23     88%   26 1018 1017.7 0 0  
Sep 20 15:46 WSW 24 16.09 Light Rain BKN050 BKN075 BKN120 26 22     79%   28 1018.3   0    
Sep 20 15:31 W 17 16.09 Thunderstorms and Rain SCT055 BKN075 OVC120 26 22     79%   28 1018   0    
Sep 20 14:53 Calm 16.09 Light Rain SCT070 BKN090 OVC110 28 22     70%   31 1018.3 1018.1 0    
Sep 20 13:53 SE 17 16.09 Mostly Cloudy BKN037 BKN050 32 22     57%   36 1018.6 1018.5      
Sep 20 12:53 S 21 16.09 Mostly Cloudy BKN040 BKN110 32 22     57%   36 1019.7 1019.3     0
Sep 20 11:00 SSE 13 16.09 Mostly Cloudy SCT085 BKN110 28 22     72%   30 1020        
Sep 20 10:53 5 16.09 Cloudy BKN018 OVC031 27 22     74%   30 1020 1019.8 0    
May 14 15:53 WSW 11 16.09 Clear CLR 33 19     43%   35 1014.2 1014      
May 14 06:53 Calm 8.05 Fog/Mist CLR 21 21     100%     1017.3 1017.2      
May 13 02:53 S 5 16.09 Clear CLR 22 20     87%   23 1016.9 1016.7      
May 12 02:53 S 8 16.09 Clear CLR 21 18     84%     1016.6 1016.5      
May 11 16:53 SSW 17 16.09 Clear CLR 31 17     43%   32 1015.2 1014.9      
Jun 11 22:53 E 5 16.09 Clear   23 22     94%   24 1016.6 1016.4 0    
Jun 11 10:53 9 16.09 Partly Cloudy SCT050 28 21     65%   31 1017.6 1017.5      
Jun 11 01:53 S 5 16.09 Clear CLR 22 18     76%   22 1015.9 1015.6      
Jun 09 08:53 8 16.09 Clear CLR 23 16     66%   23 1015.2 1015.2      
Jun 09 04:53 Calm 16.09 Clear CLR 17 15     90%     1013.6 1013.4      
Jun 07 10:53 NE 28 16.09 Clear CLR 26 16     52%   26 1013.6 1013.2      
Jun 06 07:53 N 9 9.66 Light Rain and Fog/Mist OVC005 23 22     94%   24 1008.1 1007.8 0    
Jun 06 04:53 N 9 16.09 Light Rain OVC110 22 22     97%   23 1007.1 1006.9 0    
Notice The following observation data may not be complete
Jun 06 03:06   1.61 Heavy Rain and Fog/Mist FEW007 SCT017 OVC027          %         0    
Jun 06 01:53 N 8 16.09 Cloudy SCT019 BKN040 OVC090 23 22     91%   24 1007.1 1006.9      
Jun 05 14:11 8 16.09 Cloudy BKN020 OVC048 27 21     69%   28 1007.5